Tracking 19149 objects as of 21-Apr-2018
HD Live streaming from Space Station
objects crossing your sky now

SL-8 R/B

Track SL-8 R/B now!
10-day predictions


NORAD ID: 25569
Int'l Code: 1998-072C
Perigee: 976.7 km
Apogee: 1,008.1 km
Inclination: 82.9 °
Period: 104.8 minutes
Semi major axis: 7363 km
RCS: 8.6244 m2 (large)
Launch date: December 10, 1998
Source: Commonwealth of Independent States (former USSR) (CIS)
Launch site: PLESETSK MISSILE AND SPACE COMPLEX (PKMTR)

Note: This is a ROCKET BODY
aabbcc
Your satellite tracking list
Your tracking list is empty




NASA's NSSDC Master Catalog

Two Line Element Set (TLE):
1 25569U 98072C   18111.52995538  .00000139  00000-0  13232-3 0  9998
2 25569  82.9402 101.6152 0021346  10.9810 105.4934 13.74002419970840
Source of the keplerian elements: AFSPC